Flagstaff, AZ

11:23 AM MST on April 28, 2017 (GMT -0700)
Flagstaff Pulliam

Weather History for KFLG - May, 2014

Change the Weather History Date:

Friday, May 23, 2014

  Actual Average Record
Temperature  
Mean Temperature 48 °F 53 °F  
Max Temperature 63 °F 70 °F 85 °F (1984)
Min Temperature 33 °F 36 °F 23 °F (1927)
Degree Days  
Heating Degree Days 17 12  
Month to date heating degree days 352 332  
Since 1 July heating degree days 6353 6688  
Cooling Degree Days 0 0  
Month to date cooling degree days 0 0  
Year to date cooling degree days 0 0  
Moisture  
Dew Point 18 °F    
Average Humidity 37    
Maximum Humidity 59    
Minimum Humidity 14    
Precipitation  
Precipitation 0.00 in 0.02 in 0.97 in (1919)
Month to date precipitation 0.05 0.47  
Year to date precipitation 3.14 7.95  
Snow  
Snow 0.00 in 0.10 in 4.40 in (2008)
Month to date snowfall 0.4 0.7  
Since 1 July snowfall 44.4 101.7  
Snow Depth 0.00 in    
Sea Level Pressure  
Sea Level Pressure 29.92 in    
Wind  
Wind Speed 6 mph (SSE)    
Max Wind Speed 24 mph    
Max Gust Speed 35 mph    
Visibility 10 miles    
Events      
T = Trace of Precipitation, MM = Missing Value Source: NWS Daily Summary

Daily Weather History Graph

Daily Weather History Graph

Search for Another Location

Airport or City:

Trip Planner

Search our weather history database for the weather conditions in past years. The results will help you decide how hot, cold, wet, or windy it might be!

Date:

Astronomy

May. 23, 2014 Rise Set
Actual Time 5:17 AM MST 7:29 PM MST
Civil Twilight 4:48 AM MST 7:58 PM MST
Nautical Twilight 4:13 AM MST 8:33 PM MST
Astronomical Twilight 3:35 AM MST 9:11 PM MST
Moon 2:01 AM MST (5/23) 2:37 PM MST (5/23)
Length of Visible Light 15h 09m
Length of Day
14h 12m
Waning Crescent, 26% of the Moon is Illuminated
May 23
Waning Crescent
May 28
New
Jun 5
First Quarter
Jun 12
Full
Jun 19
Last Quarter

Hourly Weather History & Observations

Time (MST) Temp. Windchill Dew Point Humidity Pressure Visibility Wind Dir Wind Speed Gust Speed Precip Events Conditions
12:57 AM 39.0 °F 36.8 °F 15.1 °F 38% 29.93 in 8.0 mi ENE 3.5 mph - N/A   Partly Cloudy
1:57 AM 39.0 °F - 15.1 °F 38% 29.92 in 8.0 mi Calm Calm - N/A   Scattered Clouds
2:57 AM 43.0 °F 41.3 °F 18.0 °F 37% 29.89 in 10.0 mi ENE 3.5 mph - N/A   Scattered Clouds
3:57 AM 48.0 °F - 19.0 °F 32% 29.87 in 10.0 mi ESE 4.6 mph - N/A   Mostly Cloudy
4:57 AM 44.1 °F - 21.0 °F 40% 29.89 in 10.0 mi Calm Calm - N/A   Mostly Cloudy
5:57 AM 42.1 °F - 21.9 °F 45% 29.91 in 10.0 mi Calm Calm - N/A   Scattered Clouds
6:57 AM 43.0 °F 41.3 °F 24.1 °F 47% 29.93 in 10.0 mi SW 3.5 mph - N/A   Partly Cloudy
7:57 AM 52.0 °F - 21.0 °F 30% 29.91 in 10.0 mi ENE 6.9 mph - N/A   Partly Cloudy
8:57 AM 55.0 °F - 23.0 °F 29% 29.92 in 10.0 mi SSE 9.2 mph - N/A   Clear
9:57 AM 59.0 °F - 19.9 °F 22% 29.91 in 10.0 mi SSW 15.0 mph 20.7 mph N/A   Scattered Clouds
10:57 AM 59.0 °F - 18.0 °F 20% 29.92 in 10.0 mi SSE 10.4 mph 17.3 mph N/A   Mostly Cloudy
11:57 AM 60.1 °F - 15.1 °F 17% 29.91 in 10.0 mi SSW 17.3 mph 24.2 mph N/A   Partly Cloudy
12:57 PM 60.8 °F - 10.4 °F 14% 30.10 in 10.0 mi SSW 12.7 mph 25.3 mph N/A   Clear
1:57 PM 59.0 °F - 14.0 °F 17% 29.90 in 10.0 mi ENE 5.8 mph 23.0 mph N/A   Mostly Cloudy
2:57 PM 62.1 °F - 12.0 °F 14% 29.86 in 10.0 mi South 16.1 mph 23.0 mph N/A   Scattered Clouds
3:57 PM 60.1 °F - 10.9 °F 14% 29.86 in 9.0 mi SW 13.8 mph 19.6 mph N/A   Clear
4:57 PM 59.0 °F - 10.9 °F 15% 29.87 in 6.0 mi WSW 10.4 mph - N/A   Haze
5:57 PM 59.0 °F - 12.0 °F 16% 29.88 in 6.0 mi WSW 8.1 mph - N/A   Haze
6:57 PM 55.9 °F - 12.9 °F 18% 29.91 in 10.0 mi SSW 6.9 mph - N/A   Overcast
7:57 PM 50.0 °F - 14.0 °F 24% 29.91 in 10.0 mi Calm Calm - N/A   Scattered Clouds
8:57 PM 45.0 °F 42.6 °F 26.1 °F 48% 29.94 in 10.0 mi ESE 4.6 mph - N/A   Scattered Clouds
9:57 PM 41.0 °F - 26.1 °F 55% 29.96 in 10.0 mi Calm Calm - N/A   Clear
10:57 PM 37.0 °F - 24.1 °F 59% 29.96 in 10.0 mi Calm Calm - N/A   Clear
11:57 PM 34.0 °F - 21.9 °F 61% 29.96 in 10.0 mi Calm Calm - N/A   Scattered Clouds